User: anonymous   Login
Location: Dappach
(48.9767°N, 9.6998°E)
Time: 13:35:55
(UTC+00:00)
Language:

Meteor 2-5 Rocket - Orbit

View from above orbital plane
View from above orbital plane
View from above satellite
View from above satellite

Ground track
Ground track

The orbit data is extracted from the following two-line orbital elements,

1 11608U 79095B   24195.83010902  .00000270  00000-0  15351-3 0  9997
2 11608  81.2111 223.4544 0055036 103.8659 256.8641 14.06368885292944
Epoch (UTC): 13 July 2024 19:55:21
Eccentricity: 0.0055036
inclination: 81.2111°
perigee height: 832 km
apogee height: 912 km
right ascension of ascending node: 223.4544°
argument of perigee: 103.8659°
revolutions per day: 14.06368885
mean anomaly at epoch: 256.8641°
orbit number at epoch: 29294

The dashed part of the orbit path shows where the satellite is in the earth's shadow,  

DLR